Precipitable_Water
0.37 0.23 0.20 0.16 0.21 0.31 0.44 0.54 0.58 0.69 0.79 0.92 0.91 0.89 0.92 0.98 1.01 1.19 1.21 1.30 1.37 1.19 1.08 1.10 1.14 1.14 1.22 1.25 1.31 1.28 1.23 1.12 1.07 1.09 1.11 1.10 1.08 1.04 1.04 1.01 0.93 0.97 1.01 1.05 1.10 1.19 1.23 1.39 1.47 1.51 1.60 1.63 1.70 1.67 1.65 1.72 1.76 1.79 1.73 1.69 1.58 1.57 1.54 1.49 1.42 1.40 1.40 1.35 1.39 1.44 1.40 1.39 1.46 1.49 1.55 1.58 1.60 1.62 1.59 1.60 1.62 1.66 1.71 1.85 1.88 1.93
0.30 0.22 0.18 0.19 0.19 0.27 0.34 0.46 0.62 0.72 0.76 0.88 0.88 0.88 0.89 1.01 0.96 1.15 1.18 1.35 1.45 1.22 1.08 1.19 1.14 1.12 1.19 1.28 1.38 1.36 1.24 1.14 1.06 1.07 1.12 1.13 1.11 1.07 1.05 1.03 0.93 1.01 1.09 1.11 1.12 1.24 1.26 1.37 1.44 1.49 1.53 1.58 1.55 1.60 1.58 1.64 1.72 1.75 1.74 1.69 1.63 1.60 1.55 1.50 1.42 1.41 1.39 1.37 1.37 1.37 1.37 1.42 1.44 1.43 1.43 1.42 1.50 1.54 1.57 1.61 1.65 1.66 1.67 1.73 1.75 1.74
0.19 0.17 0.18 0.19 0.21 0.23 0.32 0.41 0.53 0.58 0.69 0.83 0.82 0.82 0.82 0.88 1.05 1.17 1.21 1.35 1.42 1.31 1.07 1.16 1.15 1.13 1.20 1.26 1.37 1.36 1.30 1.30 1.25 1.19 1.16 1.17 1.14 1.07 1.05 1.05 1.02 1.03 1.04 1.10 1.14 1.27 1.28 1.36 1.42 1.46 1.51 1.53 1.59 1.59 1.55 1.63 1.73 1.73 1.69 1.68 1.66 1.60 1.56 1.55 1.53 1.46 1.37 1.39 1.41 1.42 1.39 1.44 1.44 1.51 1.46 1.42 1.48 1.50 1.50 1.55 1.64 1.66 1.65 1.67 1.69 1.70
0.16 0.15 0.18 0.21 0.25 0.24 0.32 0.38 0.45 0.50 0.60 0.68 0.87 0.74 0.68 0.86 0.86 0.83 1.12 1.29 1.36 1.21 1.11 1.19 1.08 1.18 1.27 1.30 1.33 1.38 1.38 1.37 1.39 1.31 1.24 1.24 1.20 1.12 1.06 1.06 1.06 1.04 1.04 1.09 1.13 1.23 1.30 1.35 1.42 1.46 1.50 1.54 1.59 1.59 1.56 1.58 1.66 1.71 1.70 1.67 1.64 1.59 1.62 1.60 1.60 1.54 1.45 1.43 1.44 1.46 1.43 1.48 1.49 1.44 1.41 1.39 1.43 1.40 1.38 1.42 1.57 1.59 1.58 1.62 1.62 1.69
0.17 0.18 0.19 0.23 0.28 0.33 0.34 0.39 0.42 0.46 0.54 0.60 0.75 0.70 0.70 0.79 0.84 0.84 0.93 1.22 1.30 1.31 1.28 1.20 1.08 1.09 1.18 1.13 1.18 1.32 1.45 1.44 1.41 1.37 1.28 1.25 1.24 1.27 1.19 1.12 1.12 1.09 1.05 1.09 1.08 1.23 1.27 1.31 1.38 1.42 1.49 1.58 1.59 1.58 1.53 1.53 1.57 1.65 1.69 1.69 1.66 1.63 1.66 1.66 1.67 1.63 1.54 1.50 1.44 1.43 1.44 1.47 1.49 1.49 1.40 1.32 1.26 1.29 1.29 1.34 1.41 1.44 1.53 1.54 1.53 1.62
0.20 0.22 0.23 0.24 0.27 0.32 0.37 0.37 0.37 0.46 0.43 0.54 0.62 0.69 0.71 0.82 0.82 0.95 1.01 1.04 1.02 1.02 1.17 1.12 0.85 0.87 1.09 1.15 1.16 1.24 1.31 1.34 1.44 1.35 1.29 1.24 1.22 1.22 1.19 1.12 1.11 1.18 1.14 1.11 1.10 1.21 1.26 1.30 1.40 1.44 1.49 1.53 1.61 1.59 1.54 1.58 1.56 1.61 1.67 1.71 1.71 1.69 1.66 1.65 1.68 1.67 1.58 1.48 1.36 1.31 1.25 1.24 1.28 1.24 1.23 1.16 1.11 1.16 1.19 1.23 1.37 1.41 1.50 1.49 1.52 1.59
0.21 0.24 0.23 0.23 0.26 0.29 0.32 0.36 0.43 0.45 0.48 0.47 0.61 0.76 0.81 0.88 0.89 0.92 0.96 0.92 0.78 0.76 1.04 1.21 0.82 0.76 1.09 1.08 1.15 1.21 1.22 1.25 1.40 1.37 1.34 1.29 1.23 1.20 1.21 1.16 1.11 1.16 1.14 1.15 1.18 1.25 1.27 1.33 1.39 1.45 1.49 1.54 1.54 1.62 1.58 1.62 1.60 1.61 1.64 1.73 1.73 1.69 1.64 1.65 1.70 1.69 1.60 1.51 1.41 1.32 1.26 1.29 1.27 1.20 1.22 1.27 1.25 1.23 1.25 1.31 1.34 1.37 1.48 1.53 1.54 1.60
0.20 0.23 0.24 0.24 0.24 0.25 0.33 0.34 0.51 0.52 0.48 0.47 0.70 0.76 0.83 0.88 0.84 0.85 0.89 0.89 0.84 1.08 1.15 1.16 1.05 0.84 0.85 1.04 1.20 1.23 1.17 1.20 1.28 1.35 1.37 1.34 1.27 1.20 1.20 1.18 1.14 1.16 1.16 1.13 1.18 1.25 1.31 1.38 1.41 1.44 1.50 1.58 1.57 1.61 1.61 1.62 1.61 1.56 1.60 1.71 1.73 1.73 1.67 1.66 1.69 1.65 1.62 1.51 1.43 1.34 1.29 1.33 1.31 1.26 1.23 1.27 1.27 1.30 1.32 1.32 1.34 1.39 1.47 1.53 1.55 1.54
0.18 0.21 0.24 0.27 0.26 0.27 0.34 0.46 0.50 0.51 0.48 0.65 0.70 0.74 0.78 0.77 0.84 0.89 0.90 0.88 0.92 0.91 0.85 1.01 1.12 0.84 0.82 1.01 1.23 1.24 1.09 1.11 1.17 1.27 1.35 1.37 1.31 1.24 1.17 1.21 1.17 1.18 1.18 1.17 1.19 1.24 1.31 1.39 1.49 1.53 1.54 1.59 1.64 1.60 1.58 1.60 1.62 1.57 1.63 1.68 1.74 1.73 1.68 1.66 1.63 1.58 1.60 1.57 1.46 1.39 1.32 1.29 1.35 1.34 1.33 1.37 1.36 1.32 1.36 1.32 1.35 1.41 1.49 1.52 1.54 1.54
0.18 0.23 0.28 0.32 0.33 0.31 0.42 0.52 0.55 0.53 0.46 0.68 0.64 0.69 0.77 0.84 0.85 0.88 0.87 0.87 0.88 0.80 0.71 0.87 1.02 0.77 0.77 0.98 1.02 1.18 1.11 1.06 1.11 1.24 1.34 1.40 1.37 1.29 1.19 1.22 1.23 1.21 1.19 1.20 1.23 1.26 1.34 1.44 1.54 1.58 1.59 1.58 1.64 1.63 1.65 1.68 1.63 1.59 1.62 1.63 1.67 1.68 1.71 1.66 1.57 1.54 1.54 1.55 1.52 1.46 1.37 1.29 1.33 1.37 1.37 1.39 1.31 1.34 1.37 1.31 1.32 1.37 1.42 1.49 1.51 1.51
0.23 0.24 0.31 0.33 0.33 0.38 0.47 0.53 0.53 0.54 0.54 0.64 0.79 0.71 0.85 0.76 0.88 0.88 0.87 0.84 0.79 0.66 0.73 0.86 0.95 0.84 0.68 0.89 0.96 0.96 0.96 1.08 1.19 1.28 1.38 1.43 1.44 1.38 1.26 1.22 1.23 1.24 1.24 1.23 1.24 1.28 1.36 1.46 1.56 1.61 1.55 1.58 1.62 1.64 1.65 1.70 1.61 1.57 1.58 1.59 1.59 1.66 1.72 1.68 1.56 1.53 1.51 1.47 1.50 1.50 1.41 1.35 1.36 1.37 1.34 1.32 1.30 1.36 1.37 1.30 1.31 1.33 1.39 1.45 1.52 1.51
0.22 0.26 0.29 0.34 0.45 0.48 0.49 0.50 0.53 0.56 0.59 0.51 0.47 0.52 0.55 0.77 0.74 0.73 0.78 0.84 0.60 0.61 0.80 0.92 0.93 0.93 0.66 0.81 1.03 1.11 1.18 1.21 1.21 1.20 1.29 1.36 1.41 1.40 1.32 1.26 1.25 1.27 1.29 1.31 1.27 1.29 1.36 1.42 1.51 1.57 1.55 1.56 1.56 1.60 1.66 1.70 1.64 1.55 1.55 1.56 1.54 1.59 1.68 1.67 1.61 1.57 1.51 1.48 1.51 1.59 1.48 1.45 1.47 1.42 1.33 1.33 1.32 1.34 1.35 1.33 1.32 1.35 1.37 1.38 1.42 1.46
0.23 0.22 0.26 0.36 0.48 0.50 0.48 0.47 0.50 0.51 0.50 0.44 0.43 0.45 0.42 0.46 0.54 0.50 0.62 0.58 0.56 0.58 0.80 0.94 1.00 0.90 0.83 0.94 1.09 1.17 1.20 1.23 1.26 1.28 1.29 1.34 1.40 1.42 1.37 1.34 1.30 1.29 1.31 1.31 1.30 1.33 1.36 1.39 1.43 1.44 1.50 1.53 1.54 1.55 1.66 1.69 1.66 1.58 1.51 1.52 1.48 1.47 1.63 1.66 1.65 1.62 1.57 1.48 1.54 1.60 1.57 1.57 1.54 1.49 1.43 1.39 1.38 1.39 1.38 1.38 1.35 1.34 1.32 1.36 1.35 1.39
0.23 0.27 0.33 0.36 0.46 0.49 0.47 0.40 0.42 0.41 0.43 0.42 0.41 0.39 0.34 0.35 0.40 0.37 0.44 0.49 0.57 0.72 0.89 0.88 1.04 0.82 0.97 1.04 1.16 1.16 1.24 1.29 1.31 1.35 1.36 1.38 1.42 1.42 1.41 1.42 1.37 1.32 1.30 1.32 1.33 1.35 1.36 1.37 1.42 1.44 1.47 1.51 1.53 1.58 1.66 1.70 1.67 1.60 1.49 1.50 1.48 1.46 1.58 1.66 1.66 1.68 1.61 1.52 1.59 1.64 1.60 1.62 1.57 1.50 1.46 1.47 1.41 1.41 1.41 1.44 1.38 1.38 1.36 1.39 1.40 1.43
0.20 0.20 0.28 0.35 0.34 0.42 0.42 0.42 0.42 0.41 0.41 0.42 0.43 0.39 0.36 0.37 0.38 0.36 0.44 0.42 0.49 0.58 0.76 0.96 0.80 0.73 0.73 0.89 1.25 1.29 1.32 1.36 1.39 1.40 1.42 1.43 1.49 1.49 1.48 1.47 1.44 1.36 1.31 1.34 1.35 1.33 1.34 1.35 1.40 1.42 1.48 1.50 1.51 1.54 1.64 1.70 1.69 1.64 1.51 1.47 1.43 1.43 1.50 1.59 1.62 1.68 1.66 1.61 1.59 1.64 1.62 1.64 1.60 1.56 1.49 1.50 1.45 1.42 1.40 1.47 1.44 1.42 1.43 1.44 1.46 1.49
0.23 0.21 0.31 0.40 0.42 0.41 0.38 0.47 0.45 0.43 0.41 0.44 0.44 0.40 0.35 0.36 0.49 0.41 0.52 0.55 0.58 0.60 0.65 0.79 0.76 0.92 0.90 1.20 1.28 1.32 1.33 1.34 1.40 1.41 1.41 1.40 1.48 1.54 1.51 1.47 1.45 1.38 1.34 1.33 1.33 1.33 1.35 1.38 1.41 1.44 1.47 1.48 1.51 1.52 1.59 1.67 1.67 1.63 1.53 1.48 1.42 1.39 1.45 1.53 1.60 1.62 1.68 1.65 1.65 1.65 1.60 1.60 1.60 1.59 1.56 1.52 1.51 1.46 1.41 1.47 1.48 1.45 1.46 1.46 1.50 1.53
0.30 0.25 0.37 0.43 0.43 0.39 0.37 0.43 0.43 0.44 0.35 0.43 0.41 0.33 0.35 0.42 0.46 0.49 0.55 0.70 0.69 0.59 0.54 0.82 0.81 0.91 1.12 1.13 1.20 1.26 1.27 1.30 1.37 1.39 1.40 1.39 1.44 1.50 1.51 1.52 1.51 1.44 1.39 1.36 1.33 1.32 1.33 1.38 1.41 1.46 1.48 1.47 1.50 1.52 1.54 1.61 1.65 1.64 1.56 1.50 1.42 1.40 1.42 1.50 1.58 1.61 1.68 1.70 1.69 1.63 1.64 1.59 1.56 1.58 1.54 1.51 1.53 1.50 1.47 1.47 1.52 1.49 1.54 1.54 1.53 1.56
0.32 0.32 0.38 0.38 0.35 0.40 0.42 0.37 0.42 0.46 0.51 0.40 0.32 0.39 0.44 0.45 0.53 0.49 0.43 0.53 0.55 0.48 0.57 0.69 0.64 0.72 0.76 0.68 1.13 1.14 1.12 1.19 1.30 1.39 1.42 1.44 1.45 1.41 1.46 1.55 1.56 1.50 1.46 1.41 1.37 1.35 1.36 1.37 1.43 1.48 1.48 1.47 1.49 1.51 1.57 1.60 1.67 1.65 1.63 1.54 1.46 1.41 1.32 1.42 1.51 1.60 1.66 1.66 1.68 1.63 1.61 1.61 1.55 1.55 1.57 1.58 1.59 1.60 1.53 1.52 1.62 1.59 1.57 1.63 1.62 1.62
0.39 0.30 0.37 0.38 0.37 0.42 0.41 0.33 0.36 0.43 0.45 0.41 0.40 0.43 0.32 0.30 0.31 0.47 0.43 0.35 0.39 0.45 0.51 0.59 0.69 0.71 0.77 0.76 0.99 1.01 1.01 1.08 1.22 1.36 1.40 1.41 1.44 1.41 1.47 1.54 1.61 1.58 1.52 1.43 1.40 1.37 1.36 1.36 1.42 1.48 1.46 1.48 1.51 1.55 1.58 1.67 1.70 1.67 1.66 1.61 1.52 1.43 1.38 1.39 1.45 1.55 1.63 1.65 1.68 1.66 1.63 1.64 1.60 1.57 1.57 1.59 1.63 1.64 1.63 1.64 1.64 1.63 1.62 1.70 1.70 1.67
0.38 0.33 0.34 0.42 0.39 0.41 0.36 0.29 0.28 0.34 0.40 0.40 0.39 0.37 0.38 0.36 0.33 0.39 0.40 0.47 0.44 0.43 0.48 0.51 0.60 0.58 0.83 0.88 1.01 1.01 1.06 1.07 1.15 1.24 1.30 1.39 1.44 1.43 1.45 1.50 1.56 1.55 1.52 1.51 1.48 1.46 1.44 1.43 1.46 1.47 1.49 1.48 1.50 1.54 1.54 1.64 1.70 1.68 1.66 1.62 1.52 1.50 1.49 1.45 1.43 1.46 1.53 1.59 1.63 1.65 1.64 1.67 1.64 1.63 1.61 1.66 1.65 1.64 1.65 1.68 1.65 1.65 1.65 1.69 1.70 1.65
0.39 0.40 0.32 0.39 0.42 0.37 0.30 0.28 0.29 0.32 0.32 0.32 0.31 0.31 0.32 0.36 0.47 0.54 0.54 0.48 0.46 0.44 0.46 0.49 0.49 0.66 0.91 1.15 1.10 1.12 1.14 1.15 1.14 1.16 1.24 1.33 1.40 1.45 1.47 1.52 1.57 1.58 1.57 1.56 1.55 1.51 1.50 1.52 1.55 1.53 1.52 1.56 1.56 1.60 1.59 1.59 1.64 1.68 1.67 1.59 1.53 1.44 1.46 1.44 1.45 1.42 1.48 1.58 1.60 1.58 1.58 1.61 1.64 1.65 1.65 1.64 1.66 1.69 1.70 1.72 1.68 1.67 1.71 1.73 1.73 1.72
0.38 0.39 0.36 0.36 0.33 0.30 0.32 0.33 0.31 0.33 0.32 0.29 0.29 0.28 0.32 0.32 0.34 0.31 0.38 0.51 0.50 0.49 0.49 0.48 0.50 0.70 0.95 1.20 1.20 1.24 1.29 1.32 1.32 1.21 1.22 1.29 1.34 1.41 1.51 1.56 1.59 1.62 1.63 1.66 1.59 1.57 1.55 1.56 1.57 1.60 1.59 1.59 1.59 1.61 1.54 1.57 1.63 1.68 1.68 1.62 1.56 1.49 1.45 1.42 1.44 1.45 1.47 1.52 1.60 1.59 1.54 1.61 1.67 1.70 1.68 1.64 1.66 1.67 1.72 1.71 1.69 1.70 1.74 1.74 1.78 1.79
0.42 0.44 0.41 0.34 0.36 0.34 0.35 0.37 0.35 0.32 0.31 0.28 0.24 0.24 0.33 0.34 0.36 0.38 0.30 0.44 0.47 0.52 0.60 0.62 0.57 0.66 1.08 1.20 1.20 1.24 1.25 1.24 1.27 1.31 1.32 1.33 1.38 1.42 1.48 1.56 1.60 1.67 1.68 1.70 1.67 1.61 1.60 1.59 1.58 1.58 1.60 1.56 1.59 1.63 1.59 1.56 1.60 1.65 1.69 1.67 1.65 1.55 1.46 1.45 1.45 1.49 1.51 1.48 1.51 1.54 1.56 1.60 1.61 1.66 1.69 1.63 1.65 1.64 1.70 1.73 1.72 1.73 1.71 1.76 1.79 1.82
0.47 0.43 0.37 0.35 0.36 0.36 0.36 0.38 0.37 0.32 0.29 0.24 0.22 0.21 0.23 0.28 0.31 0.33 0.38 0.43 0.44 0.52 0.52 0.54 0.51 0.70 1.05 1.18 1.15 1.23 1.32 1.39 1.45 1.44 1.45 1.50 1.55 1.58 1.56 1.56 1.61 1.65 1.72 1.80 1.76 1.68 1.68 1.63 1.64 1.63 1.60 1.60 1.61 1.61 1.63 1.63 1.64 1.69 1.74 1.71 1.70 1.61 1.55 1.49 1.50 1.49 1.47 1.48 1.47 1.52 1.54 1.57 1.57 1.58 1.63 1.63 1.70 1.66 1.68 1.74 1.73 1.76 1.75 1.76 1.76 1.75
0.39 0.41 0.37 0.33 0.33 0.33 0.33 0.34 0.35 0.32 0.29 0.23 0.21 0.21 0.20 0.21 0.23 0.24 0.29 0.43 0.36 0.47 0.51 0.48 0.43 0.59 0.92 1.14 1.18 1.22 1.27 1.29 1.31 1.35 1.42 1.42 1.50 1.58 1.61 1.59 1.62 1.67 1.71 1.70 1.76 1.71 1.71 1.67 1.62 1.66 1.64 1.62 1.62 1.62 1.68 1.63 1.61 1.64 1.68 1.74 1.76 1.75 1.64 1.55 1.58 1.54 1.52 1.49 1.44 1.49 1.51 1.53 1.56 1.53 1.55 1.59 1.66 1.71 1.75 1.73 1.77 1.80 1.78 1.77 1.76 1.81
0.40 0.40 0.39 0.34 0.30 0.27 0.28 0.31 0.27 0.26 0.24 0.23 0.22 0.22 0.22 0.20 0.21 0.20 0.18 0.34 0.25 0.37 0.46 0.44 0.48 0.70 0.94 1.06 1.08 1.15 1.19 1.22 1.31 1.38 1.45 1.44 1.46 1.51 1.58 1.63 1.65 1.65 1.70 1.70 1.76 1.72 1.71 1.78 1.73 1.67 1.69 1.65 1.64 1.61 1.67 1.66 1.64 1.69 1.74 1.71 1.73 1.83 1.86 1.71 1.67 1.58 1.56 1.52 1.45 1.44 1.46 1.47 1.52 1.52 1.51 1.53 1.56 1.65 1.71 1.75 1.80 1.84 1.83 1.81 1.78 1.86
0.38 0.42 0.42 0.41 0.38 0.36 0.36 0.40 0.40 0.42 0.34 0.23 0.20 0.20 0.21 0.23 0.24 0.23 0.23 0.29 0.27 0.41 0.46 0.51 0.50 0.62 0.74 0.88 0.96 1.08 1.15 1.12 1.19 1.31 1.33 1.36 1.46 1.54 1.56 1.57 1.62 1.68 1.69 1.69 1.69 1.74 1.76 1.78 1.75 1.78 1.67 1.66 1.63 1.64 1.65 1.65 1.68 1.79 1.89 1.76 1.68 1.78 1.77 1.78 1.76 1.64 1.54 1.52 1.52 1.46 1.45 1.46 1.46 1.49 1.53 1.52 1.51 1.53 1.60 1.71 1.78 1.84 1.83 1.84 1.83 1.80
0.36 0.35 0.40 0.42 0.42 0.41 0.41 0.41 0.42 0.41 0.37 0.35 0.24 0.21 0.24 0.22 0.24 0.24 0.23 0.21 0.36 0.38 0.39 0.54 0.59 0.52 0.61 0.78 0.90 1.00 1.12 1.16 1.19 1.23 1.29 1.34 1.41 1.45 1.49 1.52 1.58 1.65 1.68 1.70 1.70 1.68 1.63 1.70 1.72 1.85 1.74 1.68 1.66 1.65 1.63 1.65 1.69 1.82 1.86 1.73 1.64 1.73 1.81 1.85 1.82 1.83 1.59 1.53 1.54 1.52 1.52 1.55 1.54 1.50 1.51 1.55 1.51 1.54 1.57 1.58 1.68 1.74 1.81 1.90 1.95 1.90
0.38 0.35 0.40 0.42 0.42 0.44 0.44 0.43 0.41 0.40 0.41 0.41 0.36 0.32 0.35 0.33 0.26 0.26 0.29 0.30 0.31 0.32 0.33 0.55 0.62 0.53 0.61 0.72 0.86 0.94 1.04 1.09 1.13 1.22 1.30 1.36 1.42 1.46 1.46 1.46 1.50 1.56 1.62 1.62 1.62 1.61 1.49 1.62 1.70 1.79 1.80 1.74 1.73 1.72 1.69 1.65 1.71 1.78 1.76 1.70 1.66 1.78 1.94 1.97 1.96 2.09 1.79 1.60 1.51 1.50 1.51 1.52 1.56 1.59 1.58 1.62 1.57 1.52 1.57 1.60 1.62 1.65 1.72 1.84 1.90 1.93
0.37 0.35 0.39 0.39 0.40 0.42 0.44 0.45 0.44 0.42 0.43 0.39 0.37 0.48 0.42 0.39 0.44 0.46 0.53 0.49 0.36 0.34 0.43 0.50 0.61 0.57 0.65 0.73 0.85 0.93 1.09 1.11 1.16 1.29 1.33 1.33 1.37 1.41 1.37 1.40 1.44 1.51 1.55 1.57 1.59 1.58 1.54 1.64 1.84 1.79 1.82 1.79 1.75 1.75 1.76 1.74 1.73 1.71 1.67 1.66 1.72 1.86 1.99 2.07 1.94 2.00 1.94 1.68 1.53 1.52 1.50 1.50 1.54 1.56 1.58 1.55 1.53 1.52 1.54 1.57 1.56 1.58 1.64 1.66 1.73 1.81
0.33 0.37 0.39 0.39 0.35 0.37 0.42 0.45 0.44 0.42 0.40 0.39 0.51 0.60 0.53 0.52 0.63 0.68 0.55 0.42 0.46 0.59 0.61 0.61 0.59 0.58 0.80 0.92 0.92 1.01 1.11 1.17 1.17 1.15 1.18 1.26 1.34 1.39 1.39 1.41 1.43 1.46 1.54 1.58 1.60 1.62 1.68 1.73 1.86 1.94 1.89 1.82 1.79 1.79 1.80 1.80 1.78 1.71 1.66 1.66 1.74 1.90 2.06 2.06 1.89 1.88 1.93 1.79 1.66 1.60 1.57 1.53 1.52 1.53 1.52 1.56 1.56 1.55 1.51 1.49 1.54 1.55 1.56 1.60 1.69 1.70
0.39 0.39 0.40 0.38 0.31 0.31 0.37 0.42 0.41 0.42 0.42 0.42 0.61 0.56 0.59 0.58 0.58 0.59 0.49 0.66 0.63 0.59 0.69 0.67 0.58 0.56 0.77 0.93 0.98 1.07 1.09 1.07 1.04 1.07 1.14 1.22 1.28 1.28 1.30 1.39 1.44 1.46 1.51 1.58 1.68 1.70 1.75 1.83 1.85 1.85 1.85 1.87 1.88 1.85 1.83 1.83 1.82 1.75 1.66 1.68 1.74 1.86 2.01 2.00 1.99 2.02 2.00 1.92 1.79 1.70 1.63 1.62 1.60 1.57 1.55 1.58 1.59 1.59 1.56 1.54 1.52 1.53 1.53 1.58 1.61 1.68
0.38 0.37 0.37 0.40 0.33 0.31 0.38 0.40 0.41 0.42 0.43 0.50 0.57 0.62 0.68 0.72 0.74 0.73 0.71 0.73 0.74 0.75 0.64 0.58 0.64 0.83 0.86 0.93 0.90 0.99 1.08 1.09 1.08 1.07 1.12 1.21 1.26 1.28 1.31 1.38 1.43 1.44 1.47 1.53 1.60 1.70 1.74 1.79 1.82 1.82 1.82 1.86 1.89 1.89 1.94 1.94 1.87 1.81 1.79 1.73 1.77 1.83 1.86 1.87 1.95 2.01 1.92 1.82 1.73 1.71 1.69 1.68 1.68 1.66 1.63 1.66 1.68 1.62 1.55 1.54 1.57 1.55 1.53 1.54 1.61 1.64
0.37 0.37 0.36 0.39 0.32 0.35 0.39 0.41 0.44 0.38 0.35 0.48 0.69 0.78 0.78 0.72 0.72 0.65 0.68 0.69 0.75 0.77 0.68 0.81 0.90 1.03 1.02 0.97 0.92 0.94 1.03 1.08 1.09 1.13 1.23 1.25 1.27 1.31 1.37 1.41 1.43 1.46 1.50 1.54 1.55 1.59 1.67 1.76 1.81 1.82 1.87 1.89 1.93 1.98 2.02 1.98 1.88 1.89 1.94 1.90 1.87 1.82 1.78 1.76 1.88 2.04 1.97 1.84 1.75 1.72 1.70 1.67 1.66 1.63 1.62 1.66 1.73 1.73 1.64 1.58 1.57 1.63 1.69 1.69 1.69 1.68
0.32 0.34 0.34 0.38 0.34 0.33 0.39 0.41 0.36 0.32 0.44 0.66 0.77 0.79 0.80 0.82 0.81 0.72 0.75 0.79 0.81 0.82 0.78 0.74 0.85 0.98 1.11 1.09 1.05 1.04 1.09 1.16 1.21 1.17 1.21 1.29 1.32 1.33 1.34 1.36 1.39 1.44 1.46 1.49 1.52 1.57 1.60 1.66 1.73 1.76 1.78 1.83 1.88 1.93 1.93 1.91 1.90 1.91 1.90 1.88 1.80 1.79 1.84 1.95 2.03 2.06 1.97 1.88 1.83 1.82 1.79 1.76 1.74 1.74 1.72 1.64 1.61 1.64 1.69 1.69 1.67 1.69 1.73 1.73 1.71 1.71
0.32 0.31 0.35 0.34 0.36 0.37 0.35 0.36 0.28 0.40 0.62 0.73 0.76 0.77 0.81 0.81 0.81 0.77 0.70 0.77 0.84 0.86 0.83 0.83 0.90 0.97 1.03 1.09 1.10 1.13 1.13 1.16 1.21 1.25 1.27 1.32 1.34 1.32 1.32 1.32 1.37 1.41 1.43 1.48 1.51 1.55 1.60 1.64 1.69 1.70 1.75 1.83 1.85 1.86 1.88 1.83 1.85 1.80 1.79 1.87 1.89 1.93 1.99 2.03 2.03 2.02 1.98 1.94 1.94 1.91 1.89 1.85 1.83 1.83 1.84 1.79 1.72 1.65 1.70 1.78 1.78 1.75 1.77 1.72 1.69 1.67
0.34 0.33 0.32 0.32 0.38 0.31 0.37 0.37 0.40 0.52 0.57 0.63 0.65 0.67 0.70 0.67 0.66 0.66 0.55 0.70 0.87 0.90 0.92 0.88 0.93 0.96 1.00 1.05 1.08 1.09 1.14 1.14 1.08 1.13 1.29 1.31 1.33 1.36 1.35 1.35 1.38 1.40 1.44 1.51 1.57 1.58 1.62 1.65 1.67 1.71 1.74 1.79 1.78 1.86 1.85 1.88 1.90 1.87 1.87 1.89 1.94 1.98 1.99 2.01 2.00 2.01 2.00 1.98 2.01 2.04 2.06 2.03 1.95 1.91 1.92 1.93 1.88 1.80 1.75 1.77 1.82 1.87 1.86 1.76 1.71 1.64
0.38 0.31 0.37 0.31 0.35 0.37 0.38 0.38 0.38 0.38 0.36 0.53 0.66 0.72 0.78 0.77 0.80 0.77 0.72 0.63 0.87 0.99 1.04 0.98 0.96 0.98 0.98 1.03 1.05 1.07 1.07 0.93 0.86 0.97 1.18 1.27 1.32 1.31 1.36 1.38 1.41 1.43 1.45 1.49 1.54 1.59 1.62 1.64 1.68 1.72 1.72 1.72 1.73 1.77 1.82 1.86 1.86 1.83 1.85 1.86 1.88 1.89 1.94 1.95 1.93 1.99 2.00 2.02 2.07 2.09 2.11 2.13 2.10 2.05 1.99 1.99 1.98 1.94 1.90 1.90 1.92 1.93 1.94 1.82 1.77 1.75
0.39 0.36 0.35 0.31 0.35 0.38 0.37 0.36 0.39 0.36 0.45 0.59 0.64 0.70 0.75 0.76 0.75 0.77 0.69 0.57 0.83 0.96 1.02 1.04 0.98 1.01 1.06 1.06 1.10 1.12 0.98 0.79 0.84 0.99 1.16 1.22 1.23 1.27 1.27 1.33 1.41 1.44 1.47 1.49 1.49 1.50 1.55 1.59 1.62 1.65 1.68 1.68 1.66 1.74 1.80 1.82 1.82 1.80 1.77 1.80 1.83 1.86 1.86 1.86 1.90 1.94 2.01 2.06 2.08 2.11 2.11 2.10 2.08 2.08 2.09 2.07 2.01 2.01 2.00 2.00 1.97 1.98 2.00 1.97 1.93 1.92
0.33 0.35 0.34 0.31 0.29 0.33 0.38 0.38 0.40 0.51 0.48 0.59 0.67 0.73 0.77 0.79 0.75 0.68 0.47 0.52 0.84 0.94 1.01 1.07 1.05 1.05 1.09 1.09 1.06 1.06 1.05 0.88 0.94 1.07 1.23 1.24 1.23 1.24 1.26 1.27 1.31 1.35 1.38 1.44 1.48 1.51 1.53 1.57 1.57 1.56 1.59 1.60 1.63 1.71 1.73 1.74 1.73 1.72 1.73 1.77 1.81 1.81 1.83 1.86 1.90 1.92 1.93 2.01 2.06 2.13 2.14 2.12 2.08 2.06 2.03 2.01 2.01 1.99 2.00 2.03 2.02 1.99 1.96 1.95 1.96 1.95
0.35 0.34 0.34 0.32 0.34 0.36 0.35 0.42 0.47 0.53 0.65 0.71 0.75 0.77 0.78 0.76 0.70 0.49 0.42 0.68 0.94 1.01 1.04 1.08 1.08 1.09 1.13 1.10 1.05 0.89 1.09 1.21 1.23 1.30 1.30 1.26 1.18 1.15 1.23 1.28 1.28 1.30 1.31 1.34 1.35 1.42 1.43 1.46 1.48 1.50 1.53 1.57 1.62 1.65 1.68 1.70 1.69 1.68 1.71 1.74 1.75 1.75 1.79 1.85 1.87 1.86 1.86 1.91 1.92 1.95 2.02 2.03 2.03 1.97 1.95 1.94 1.93 1.95 1.97 1.99 1.98 1.98 1.94 1.93 1.96 1.97
0.39 0.38 0.41 0.38 0.36 0.40 0.46 0.41 0.44 0.53 0.68 0.75 0.81 0.79 0.78 0.66 0.49 0.50 0.84 1.08 1.05 1.03 1.09 1.10 1.09 1.14 1.16 1.13 1.14 1.11 1.17 1.31 1.29 1.28 1.28 1.21 1.14 1.13 1.16 1.19 1.21 1.23 1.26 1.31 1.33 1.32 1.32 1.34 1.39 1.43 1.48 1.54 1.57 1.60 1.62 1.63 1.62 1.64 1.65 1.65 1.65 1.71 1.78 1.79 1.79 1.78 1.77 1.75 1.74 1.80 1.85 1.87 1.89 1.89 1.87 1.86 1.86 1.81 1.80 1.85 1.89 1.90 1.90 1.92 1.92 1.90
0.40 0.34 0.38 0.39 0.46 0.43 0.45 0.43 0.42 0.35 0.66 0.79 0.74 0.75 0.83 0.59 0.69 0.98 1.04 1.06 1.08 1.07 1.09 1.12 1.13 1.15 1.19 1.14 1.21 1.19 1.18 1.18 1.18 1.20 1.24 1.21 1.15 1.14 1.13 1.13 1.13 1.13 1.13 1.14 1.14 1.22 1.24 1.25 1.28 1.33 1.39 1.48 1.54 1.58 1.60 1.60 1.56 1.56 1.59 1.57 1.61 1.68 1.70 1.69 1.66 1.62 1.57 1.54 1.54 1.56 1.60 1.66 1.70 1.71 1.71 1.69 1.71 1.71 1.70 1.73 1.71 1.71 1.71 1.72 1.75 1.74
0.51 0.38 0.41 0.45 0.53 0.42 0.42 0.39 0.43 0.62 0.77 0.86 0.77 0.64 0.86 0.89 0.98 1.02 1.00 0.97 1.08 1.11 1.10 1.10 1.17 1.24 1.24 1.19 1.18 1.18 1.16 1.10 1.09 1.12 1.18 1.17 1.14 1.14 1.14 1.13 1.11 1.07 1.03 1.08 1.12 1.13 1.14 1.15 1.19 1.23 1.28 1.34 1.42 1.47 1.50 1.51 1.48 1.49 1.48 1.48 1.57 1.57 1.58 1.59 1.60 1.58 1.52 1.48 1.43 1.41 1.42 1.49 1.54 1.57 1.56 1.54 1.54 1.56 1.60 1.60 1.59 1.61 1.61 1.60 1.58 1.59
0.53 0.52 0.52 0.45 0.60 0.50 0.50 0.59 0.72 0.81 0.85 0.91 0.90 0.91 0.95 1.00 1.03 1.01 0.97 0.96 0.99 1.02 1.15 1.11 1.12 1.22 1.26 1.23 1.19 1.16 1.12 1.11 1.07 1.11 1.13 1.15 1.08 1.03 1.01 0.98 0.97 1.00 1.05 1.07 1.06 1.06 1.04 1.00 1.00 1.02 1.06 1.12 1.17 1.21 1.24 1.30 1.31 1.34 1.35 1.42 1.45 1.42 1.40 1.41 1.44 1.42 1.39 1.39 1.40 1.38 1.38 1.43 1.45 1.45 1.46 1.49 1.50 1.46 1.45 1.46 1.48 1.46 1.52 1.54 1.53 1.49
0.68 0.64 0.66 0.58 0.60 0.71 0.76 0.79 0.84 0.84 0.86 0.90 0.95 0.96 0.98 1.01 1.07 1.04 0.99 0.98 1.05 1.10 1.11 1.09 1.16 1.19 1.25 1.27 1.17 1.15 1.13 1.13 1.10 1.06 1.10 1.11 1.07 1.06 1.05 1.04 1.05 1.05 1.02 1.02 1.02 1.01 0.96 0.94 0.91 0.88 0.85 0.88 0.89 0.94 1.03 1.13 1.18 1.16 1.25 1.33 1.33 1.30 1.27 1.26 1.26 1.28 1.30 1.33 1.36 1.39 1.41 1.39 1.41 1.44 1.45 1.45 1.45 1.43 1.39 1.31 1.31 1.33 1.36 1.39 1.39 1.39
0.57 0.64 0.59 0.51 0.60 0.57 0.52 0.76 0.76 0.78 0.87 0.91 0.91 0.95 0.98 1.00 1.06 1.09 0.95 0.93 1.01 1.15 1.18 1.21 1.22 1.22 1.24 1.26 1.19 1.15 1.15 1.15 1.10 1.11 1.13 1.10 1.10 1.10 1.10 1.08 1.05 1.01 0.97 0.93 0.93 0.92 0.87 0.83 0.81 0.82 0.83 0.83 0.88 0.86 0.85 0.83 0.87 0.92 0.99 1.05 1.14 1.15 1.14 1.10 1.11 1.15 1.20 1.20 1.23 1.27 1.28 1.27 1.27 1.29 1.33 1.35 1.37 1.38 1.39 1.41 1.36 1.31 1.31 1.26 1.19 1.19
0.45 0.56 0.50 0.55 0.56 0.54 0.57 0.72 0.78 0.82 0.84 0.88 0.90 0.88 0.86 0.92 1.02 1.13 1.10 1.01 0.99 1.10 1.21 1.24 1.24 1.18 1.22 1.19 1.20 1.17 1.17 1.19 1.15 1.12 1.10 1.13 1.11 1.09 1.10 1.08 1.03 0.99 0.93 0.88 0.85 0.81 0.80 0.78 0.77 0.77 0.76 0.74 0.75 0.75 0.78 0.83 0.86 0.91 0.91 0.90 0.91 0.96 0.98 0.95 0.95 0.96 1.00 1.04 1.07 1.10 1.13 1.08 1.12 1.16 1.17 1.20 1.22 1.23 1.21 1.19 1.17 1.16 1.21 1.20 1.18 1.16
0.52 0.54 0.49 0.59 0.54 0.64 0.70 0.73 0.74 0.75 0.76 0.79 0.83 0.88 0.91 0.93 0.95 1.05 1.12 1.06 1.03 1.02 1.07 1.18 1.24 1.19 1.20 1.18 1.22 1.17 1.13 1.20 1.20 1.20 1.18 1.19 1.15 1.11 1.07 1.03 0.99 0.92 0.88 0.85 0.88 0.89 0.85 0.83 0.81 0.80 0.78 0.78 0.80 0.81 0.83 0.87 0.92 0.96 0.96 0.92 0.85 0.83 0.83 0.83 0.86 0.89 0.89 0.89 0.90 0.89 0.92 0.88 0.90 0.96 1.00 1.07 1.14 1.17 1.15 1.11 1.05 1.04 1.09 1.16 1.18 1.16
0.55 0.50 0.58 0.57 0.49 0.52 0.55 0.62 0.70 0.55 0.54 0.69 0.77 0.82 0.83 0.87 0.92 0.96 1.06 1.08 1.07 1.08 1.07 1.04 1.09 1.20 1.22 1.22 1.19 1.14 1.06 1.11 1.17 1.13 1.12 1.13 1.11 1.07 1.03 1.01 0.95 0.93 0.97 1.01 1.02 1.00 0.97 0.95 0.91 0.88 0.85 0.84 0.85 0.83 0.83 0.85 0.89 0.94 0.93 0.93 0.91 0.89 0.81 0.81 0.80 0.81 0.79 0.78 0.76 0.78 0.84 0.89 0.95 0.91 0.88 0.84 0.85 0.93 0.97 1.02 1.00 0.97 0.95 0.95 1.00 0.99
0.52 0.54 0.55 0.50 0.49 0.51 0.68 0.72 0.76 0.74 0.75 0.76 0.78 0.81 0.82 0.86 0.85 0.84 0.90 0.98 1.06 1.09 1.08 1.02 1.02 1.05 1.07 1.14 1.19 1.15 1.12 1.10 1.11 1.11 1.09 1.08 1.09 1.08 1.04 0.99 0.92 0.96 0.99 1.03 1.02 1.00 0.97 0.95 0.92 0.87 0.83 0.83 0.84 0.82 0.82 0.82 0.83 0.84 0.86 0.86 0.86 0.86 0.79 0.78 0.75 0.74 0.74 0.75 0.75 0.76 0.79 0.83 0.88 0.90 0.87 0.84 0.84 0.83 0.83 0.85 0.89 0.91 0.90 0.90 0.89 0.88
Wind_Speed
19 18 19 20 20 20 19 17 16 15 13 12 11 10 11 11 10 11 11 13 14 15 15 14 13 14 13 12 10 9 13 15 14 14 15 15 15 15 15 14 14 13 13 13 14 13 13 13 13 12 12 11 11 10 10 10 10 10 10 10 10 10 11 11 11 11 12 12 12 12 13 14 14 15 15 15 16 16 16 16 16 16 15 15 15 15
20 19 19 20 20 21 20 18 17 16 15 13 12 11 10 10 9 9 10 10 12 14 15 13 13 15 14 12 10 9 11 13 13 14 14 15 16 15 15 15 14 14 14 14 14 14 14 13 13 12 12 12 11 10 10 10 10 10 10 10 10 10 11 11 11 11 11 12 12 13 14 14 15 15 16 15 15 15 16 16 16 15 15 15 14 14
19 19 19 19 19 21 20 19 18 17 16 15 13 12 10 9 9 8 9 8 10 13 13 12 12 14 14 13 11 10 11 11 11 13 13 14 15 15 16 16 15 14 14 14 14 14 14 14 13 13 12 12 12 11 10 10 10 10 10 9 10 10 11 11 11 11 11 11 12 13 14 14 15 15 16 16 15 15 16 15 15 15 15 14 14 14
19 18 19 19 19 20 20 19 18 17 17 16 14 13 11 11 10 8 8 9 9 10 12 14 13 13 13 13 12 11 12 12 11 12 13 13 14 14 16 17 16 16 15 15 15 15 14 14 14 13 13 13 12 11 10 10 10 10 9 10 10 10 10 11 11 11 11 11 12 13 14 14 15 15 15 16 15 15 15 15 15 14 14 14 13 13
18 18 19 19 18 19 20 19 18 16 16 16 16 15 12 13 12 7 7 8 7 7 11 13 13 14 15 14 14 13 12 12 13 13 13 14 14 14 16 17 16 16 16 15 16 15 15 14 14 14 13 13 12 11 11 11 10 10 10 10 10 10 10 10 11 11 11 11 12 13 14 15 15 15 15 15 15 15 15 14 14 14 14 13 13 13
18 17 18 19 19 19 19 18 18 17 15 14 15 15 13 14 12 9 8 8 7 7 10 12 12 13 15 16 16 15 13 13 15 15 15 15 15 14 16 17 17 17 17 16 16 15 15 14 14 14 14 13 12 11 11 11 10 11 10 10 10 10 10 11 11 11 11 12 12 14 14 15 15 15 15 15 15 15 15 14 14 14 14 13 13 12
18 18 18 18 18 18 19 18 17 17 15 13 13 13 12 13 12 11 11 9 9 8 8 11 11 10 14 17 18 16 15 14 15 16 16 16 16 15 16 17 18 18 17 16 16 16 16 15 14 14 14 14 13 12 12 11 11 11 11 10 10 10 10 11 11 11 11 12 13 14 14 15 15 15 15 15 14 14 14 14 13 13 13 12 12 11
18 19 18 19 19 18 18 17 17 16 14 14 14 13 13 13 13 13 12 9 9 7 7 10 11 9 11 16 17 17 16 16 16 17 18 18 17 17 17 17 18 18 18 17 17 17 16 15 15 15 14 14 13 13 12 11 11 12 11 11 10 10 10 10 11 11 12 12 12 13 14 14 14 15 15 14 14 13 13 13 12 12 12 11 11 10
17 19 18 19 18 18 18 17 15 14 13 14 16 14 13 13 13 13 11 9 9 8 7 9 10 9 10 13 15 17 18 18 18 18 19 19 19 18 18 18 18 19 19 18 18 17 17 16 15 15 15 14 14 14 13 12 12 12 11 11 11 10 10 10 11 11 12 12 12 13 13 14 14 14 14 14 13 13 12 12 11 11 11 10 10 10
15 17 18 18 17 17 18 16 14 15 14 15 16 14 13 12 12 12 11 9 8 8 9 11 11 9 9 12 14 16 18 19 19 18 19 21 21 19 19 19 18 18 19 18 18 18 17 16 16 16 15 15 15 14 14 13 12 12 12 11 11 11 10 10 11 11 11 12 12 12 13 13 13 14 14 13 13 13 12 11 11 11 10 10 9 9
14 16 18 16 16 17 17 15 15 16 15 15 15 13 13 13 12 11 10 9 8 6 8 12 13 10 8 10 14 15 16 18 18 18 18 21 22 21 19 19 18 18 19 18 19 18 18 17 17 16 16 16 15 15 15 14 13 12 12 12 12 11 10 11 11 11 11 12 12 12 13 13 13 13 13 13 13 12 12 11 10 10 10 9 8 8
15 15 17 15 14 16 17 16 16 16 15 15 15 13 11 12 12 11 11 10 7 6 7 9 11 10 8 8 11 14 14 15 18 18 18 20 23 23 20 20 19 19 19 18 18 19 18 18 17 17 17 16 16 16 15 14 13 13 13 12 12 11 11 11 11 11 11 12 12 12 13 13 13 13 13 13 13 12 11 11 10 10 9 9 8 8
15 14 16 16 15 15 16 17 17 15 15 14 14 14 12 11 11 11 11 10 7 6 6 7 9 9 10 9 10 12 13 14 18 19 19 20 23 25 22 20 20 19 19 19 19 19 18 18 18 18 17 16 16 16 15 15 14 13 13 13 13 12 12 11 11 11 11 12 12 12 12 12 12 13 13 12 12 11 11 10 10 9 9 8 8 7
14 13 15 16 16 16 16 18 17 15 16 16 14 14 14 12 10 10 10 9 7 6 5 6 8 7 9 9 10 12 13 14 17 20 21 20 22 25 24 20 20 20 19 19 19 19 19 18 18 18 18 17 17 16 16 15 14 14 14 14 13 13 13 12 11 11 11 12 11 11 12 12 12 12 12 12 11 11 11 10 9 9 8 8 7 7
14 13 14 15 16 16 17 20 19 14 15 17 15 14 15 13 12 10 9 8 8 8 6 7 8 7 7 8 9 11 13 13 16 19 21 21 21 24 25 22 20 20 20 20 20 19 19 20 19 18 18 18 17 16 16 15 14 14 14 14 14 14 13 13 12 11 11 11 11 11 11 11 11 12 12 12 11 11 11 10 9 9 8 8 7 7
14 14 15 16 15 15 16 20 19 14 14 16 15 16 15 14 13 11 10 9 8 8 7 8 8 8 8 8 8 8 10 11 14 17 21 22 21 23 25 23 21 20 20 20 20 19 20 20 19 18 19 19 18 17 16 15 15 15 15 14 14 14 14 13 13 12 12 11 11 11 11 11 11 11 11 11 11 11 11 10 9 9 8 8 7 7
12 12 13 16 16 14 15 19 19 15 14 12 13 17 17 14 13 11 10 9 8 8 8 8 8 8 8 8 8 7 7 9 11 15 19 21 22 22 23 24 22 21 21 21 20 19 20 20 19 19 19 19 18 17 17 16 16 16 15 15 15 14 14 14 13 13 12 12 11 11 11 11 11 11 11 11 11 11 11 10 9 9 8 8 7 7
10 10 10 15 17 15 14 18 19 17 16 12 9 13 14 13 13 12 10 9 8 8 9 8 8 9 8 7 8 9 9 9 10 14 17 20 22 23 23 24 23 22 21 22 21 20 20 20 19 20 20 19 19 18 17 17 17 16 15 15 15 15 15 14 14 13 13 12 12 11 11 11 11 11 10 11 11 10 10 10 9 9 8 8 8 7
9 9 9 12 17 16 13 16 19 18 17 14 10 10 12 12 14 14 12 10 9 9 9 8 7 8 9 8 8 10 10 10 11 13 16 19 22 24 24 24 24 23 21 22 21 20 21 21 20 20 20 20 19 18 18 18 17 17 16 16 16 15 15 15 14 14 13 13 12 12 12 11 11 11 10 10 10 10 10 10 9 9 9 8 8 7
9 9 8 9 13 15 12 13 17 18 17 15 13 11 11 11 12 13 13 11 10 9 9 8 7 7 7 8 9 10 10 11 11 12 14 17 21 24 25 25 25 23 21 22 22 21 21 21 21 20 20 20 20 19 19 18 18 18 17 16 16 16 15 15 15 15 14 14 13 12 12 12 11 11 10 10 10 10 10 9 9 9 9 8 8 8
9 10 9 7 9 13 12 13 17 17 16 15 14 12 12 11 10 10 11 11 10 10 9 8 7 6 7 7 8 9 9 9 10 11 13 15 18 22 25 26 25 24 22 22 22 21 22 22 21 21 20 20 21 20 19 19 18 18 17 16 16 16 16 16 15 15 15 14 14 13 13 13 12 12 11 10 10 10 9 9 9 9 8 8 8 8
9 10 9 7 8 11 12 13 16 17 16 16 14 13 13 12 10 9 10 11 10 10 10 9 8 8 8 7 6 6 7 7 9 11 13 15 17 19 22 25 26 25 23 22 22 22 22 22 22 21 20 20 21 20 20 20 19 19 18 17 17 17 17 16 16 15 15 15 14 14 14 13 13 12 12 11 11 10 10 9 9 9 8 8 8 7
10 10 10 9 8 10 11 12 15 17 16 16 15 15 14 13 11 10 10 10 10 9 9 9 8 8 8 6 5 6 7 8 9 11 13 15 17 18 19 22 24 26 25 23 22 22 22 22 22 22 21 21 20 20 20 20 19 19 19 18 18 18 17 17 16 16 16 15 15 15 14 14 13 13 13 12 11 11 11 10 10 9 9 9 8 8
10 10 9 8 8 10 11 11 14 16 16 16 16 16 16 14 13 11 11 11 10 10 10 8 8 9 8 7 6 6 6 7 8 9 11 13 15 17 18 19 21 24 25 24 22 22 21 21 22 22 22 21 20 20 20 19 19 19 19 18 18 18 18 17 17 16 16 16 15 15 15 14 14 14 14 13 12 12 12 11 11 10 10 10 9 9
11 10 9 7 7 8 8 8 10 12 13 15 16 15 16 17 15 13 12 11 11 12 12 10 9 10 9 7 6 6 6 7 7 8 10 11 13 15 16 18 19 20 23 23 22 21 21 21 22 22 22 21 21 20 20 19 19 19 19 18 18 18 18 17 18 18 16 16 16 16 15 15 15 14 14 14 13 13 12 12 11 11 11 10 10 10
12 11 10 8 7 7 7 7 9 9 9 12 15 15 15 16 16 14 12 11 12 13 13 12 11 10 9 7 6 7 7 7 8 8 9 11 13 13 13 16 18 19 20 22 21 20 20 20 22 23 23 22 22 22 21 20 19 18 18 18 17 18 18 17 17 19 18 17 16 16 16 16 15 15 14 14 14 14 13 13 12 12 12 12 11 11
13 13 12 11 9 9 9 10 10 10 8 10 13 15 15 14 14 14 13 13 13 12 12 13 12 11 10 8 7 7 7 8 9 9 9 10 11 12 12 14 16 17 19 20 21 21 19 18 20 23 23 23 23 22 22 21 20 19 19 18 17 18 18 17 17 18 19 18 17 17 16 16 16 15 15 15 14 14 14 14 13 13 13 12 12 12
12 13 13 12 11 9 10 10 10 9 8 8 11 14 14 13 14 15 14 15 14 12 12 13 13 12 12 10 9 8 7 8 9 9 9 10 10 11 12 13 14 15 17 19 21 22 20 18 20 22 22 22 22 22 22 21 21 20 20 18 18 18 19 18 17 18 19 19 18 17 17 16 16 15 15 15 15 15 14 14 14 14 13 13 13 13
12 13 13 12 11 10 9 10 10 9 9 9 9 9 7 8 10 12 12 14 16 16 15 15 14 12 12 11 10 9 8 8 8 8 9 10 11 11 11 12 13 13 15 17 19 21 21 19 20 22 22 22 21 21 22 21 21 20 20 19 19 19 19 19 18 18 18 18 18 18 17 17 16 16 15 15 15 15 14 14 14 14 14 13 13 13
10 13 14 13 13 11 10 10 10 10 10 8 6 5 3 2 4 6 6 7 12 15 16 16 15 12 11 11 10 10 10 9 8 8 9 10 11 11 11 12 12 12 14 15 16 18 20 20 21 22 21 21 21 21 22 21 20 20 19 19 19 19 19 20 20 19 18 18 18 18 18 18 17 16 16 16 16 16 15 14 13 14 14 14 14 14
9 10 12 13 13 13 12 12 11 10 10 7 4 3 4 4 4 5 5 6 9 12 15 15 14 12 10 10 10 11 11 10 10 9 9 10 11 10 10 11 12 12 13 13 14 16 17 20 21 22 21 21 21 21 21 21 21 20 19 19 19 19 20 20 21 21 19 19 19 19 19 19 19 18 17 17 16 16 16 16 15 15 14 14 14 14
9 9 10 12 13 13 14 13 12 11 9 6 3 4 4 5 6 5 6 8 9 11 13 13 12 12 11 10 10 11 11 12 11 11 10 10 10 10 10 10 11 11 12 13 13 14 14 16 18 19 20 20 20 20 20 21 21 21 20 20 20 20 20 20 21 21 20 20 19 19 19 19 19 19 19 19 18 18 17 17 17 17 16 15 15 15
9 9 10 10 11 13 13 13 13 11 8 5 5 6 5 5 6 6 6 7 9 11 13 13 12 12 12 11 11 11 12 12 11 11 10 10 10 9 9 9 9 9 10 12 13 13 12 13 14 15 16 17 18 19 19 19 20 20 20 21 22 22 21 21 22 21 20 20 20 20 20 20 19 20 20 20 20 20 20 19 19 18 18 17 17 17
9 10 11 10 11 13 13 13 12 11 10 9 8 7 6 6 7 7 6 7 9 11 14 14 12 11 11 12 12 11 11 11 10 9 9 10 10 9 8 8 7 7 7 9 11 11 11 12 13 13 14 14 16 17 18 18 17 17 18 19 21 22 22 22 22 22 21 21 21 20 20 20 19 19 20 20 20 20 20 20 20 20 20 19 19 18
8 9 11 11 11 12 12 12 12 12 13 13 10 7 7 8 9 9 8 8 9 11 13 13 13 13 12 12 12 10 9 9 10 10 10 11 11 11 9 8 7 7 7 7 9 10 10 11 12 13 14 14 15 16 17 16 16 15 15 16 17 19 20 21 22 21 21 22 22 21 21 21 20 19 19 19 19 20 20 20 20 20 20 20 20 20
10 9 10 11 11 12 12 12 13 14 15 14 11 8 8 9 10 10 10 9 10 11 12 13 14 13 12 10 10 10 9 9 9 10 11 11 11 11 10 9 9 9 8 8 9 9 10 11 12 13 15 16 17 17 17 17 16 16 15 14 15 16 18 20 20 20 21 21 22 22 22 22 22 21 20 19 19 20 20 20 20 20 20 20 20 21
10 10 10 10 11 12 12 12 13 15 15 13 12 10 8 8 9 11 12 12 12 12 13 15 15 14 12 12 11 11 10 10 11 12 12 11 11 11 10 10 10 10 9 9 10 10 11 11 12 13 14 15 16 17 18 18 18 17 17 16 16 15 16 17 18 18 19 20 21 22 23 23 23 22 21 20 20 20 20 20 20 20 20 20 20 21
9 10 10 10 11 12 12 12 12 13 14 13 13 13 11 9 10 11 12 14 14 13 13 15 16 15 14 13 13 12 12 12 13 14 13 12 12 12 11 10 10 10 10 10 10 10 11 11 12 12 13 14 15 16 17 18 18 18 17 17 17 16 16 16 17 17 16 16 17 19 21 22 23 22 21 21 21 21 21 21 21 21 21 20 20 20
10 9 10 10 11 11 12 12 12 12 14 15 14 14 13 12 12 11 12 13 14 14 14 15 15 15 15 14 13 13 14 15 15 15 15 14 13 12 11 11 10 10 10 11 11 11 11 12 12 13 13 13 14 15 16 17 17 17 17 17 17 17 17 16 16 15 15 15 15 15 16 18 19 20 20 20 21 22 22 22 22 22 21 21 20 20
10 9 9 10 12 12 12 12 12 12 14 14 14 14 13 13 12 12 13 13 13 14 15 15 15 15 15 14 13 12 13 14 15 16 15 14 13 12 12 12 12 12 11 11 11 11 11 12 12 12 13 13 14 14 15 16 16 16 16 17 16 16 16 16 16 15 15 15 15 15 15 15 16 16 17 17 19 20 21 21 22 22 22 22 21 20
9 9 9 10 11 11 12 12 12 12 12 12 13 12 12 12 12 11 13 13 12 13 15 16 16 17 17 14 13 13 13 13 13 13 13 13 12 12 13 13 12 12 12 12 12 12 12 12 12 12 12 13 13 13 14 14 15 15 15 15 15 14 15 15 15 15 15 14 14 13 13 14 14 14 15 15 16 17 18 20 21 21 22 22 21 21
8 8 8 8 9 9 11 12 12 12 11 11 11 10 10 11 13 12 13 13 12 12 15 16 16 17 16 14 13 13 14 13 13 12 11 11 11 11 12 12 12 12 12 12 12 12 12 11 11 11 12 12 12 13 13 13 13 14 14 13 13 13 13 13 13 13 13 13 13 12 12 12 13 13 14 14 15 15 16 17 18 19 20 20 20 20
8 8 7 7 8 9 10 10 11 13 11 9 10 10 9 11 13 13 12 12 12 12 13 15 15 14 13 13 13 13 13 14 13 12 10 10 11 10 11 11 11 12 12 12 12 12 11 11 11 11 12 12 12 13 13 13 13 13 13 13 13 13 13 12 12 12 12 11 11 11 11 11 11 12 11 11 12 12 13 13 14 15 16 17 18 18
8 8 8 8 9 9 10 10 11 13 10 7 8 10 10 11 12 11 10 10 11 12 13 13 14 13 13 14 13 13 13 13 13 12 10 10 11 11 11 11 11 11 12 11 11 11 11 11 11 11 11 12 12 13 13 13 13 13 13 13 13 13 13 12 12 12 11 11 10 10 10 10 10 10 9 9 9 9 10 10 11 11 13 14 15 16
7 7 7 8 8 9 10 10 11 11 9 7 8 9 10 10 11 10 9 8 9 11 12 12 13 13 14 15 14 13 13 12 13 12 12 12 12 12 12 11 10 10 10 10 11 11 11 11 11 11 11 11 12 13 13 13 13 13 13 13 13 13 13 13 13 12 12 11 11 11 10 10 10 10 10 9 9 9 9 9 9 9 9 10 11 12
6 6 6 7 8 8 8 9 10 9 8 8 8 8 8 8 9 10 9 8 8 9 10 11 12 13 14 14 13 13 12 12 12 12 12 12 13 12 11 10 10 9 9 10 11 11 11 11 11 11 11 11 12 12 13 13 14 14 14 14 14 14 14 13 13 13 13 13 12 12 12 11 12 12 12 11 10 10 10 9 9 9 9 9 9 10
6 6 5 6 8 8 8 9 9 9 8 8 8 8 7 7 7 9 9 8 8 8 8 9 10 11 12 12 12 12 12 12 12 12 11 11 12 11 11 10 10 10 10 10 10 11 11 11 11 11 11 11 12 12 13 13 13 14 14 14 15 14 14 14 14 14 14 14 14 14 14 14 13 13 13 13 12 11 11 11 11 11 11 11 11 11
5 5 5 5 6 7 8 9 8 7 7 8 8 8 8 7 6 7 8 9 8 8 8 8 9 10 11 11 11 11 11 12 12 12 11 11 11 11 11 11 11 11 11 11 11 11 11 11 11 11 11 12 12 13 13 13 14 14 15 15 15 15 15 15 15 15 15 15 15 14 15 14 14 14 14 14 14 14 14 14 13 13 13 13 13 13
3 3 4 4 5 6 8 9 9 8 7 7 7 8 8 8 7 7 8 8 8 8 8 8 8 9 10 11 11 11 11 11 12 11 11 11 10 11 12 12 12 11 12 11 10 10 10 10 11 11 12 12 13 13 13 13 14 14 15 15 15 16 15 15 16 15 15 15 15 15 15 14 15 15 15 15 16 16 16 16 15 15 15 15 15 15
1 2 3 4 4 5 7 8 9 9 8 7 7 7 8 8 8 7 7 8 8 8 9 9 8 8 9 10 11 11 11 11 12 12 10 10 10 10 11 12 12 12 12 12 11 11 10 11 11 12 12 12 12 13 13 13 13 14 14 14 15 15 16 16 16 15 15 15 15 16 16 15 15 16 16 16 17 17 17 17 16 16 16 17 17 17
2 3 3 4 4 5 6 6 7 8 8 7 7 7 7 8 8 7 7 7 9 9 9 9 9 8 9 10 10 11 11 12 13 13 11 10 10 10 11 11 11 11 12 12 12 12 11 11 12 12 13 13 13 13 13 13 13 13 14 14 15 15 15 16 15 15 16 16 15 16 16 16 16 17 17 17 18 18 18 18 18 18 18 19 19 20
Wind_Direction
206 207 208 207 208 207 209 211 210 212 206 193 197 202 198 202 209 212 215 213 210 208 206 204 198 197 197 186 184 194 188 186 189 186 184 183 183 186 184 179 183 183 174 171 172 170 168 163 157 152 151 147 143 143 141 140 138 134 133 131 129 131 129 125 125 125 127 126 125 123 125 127 126 127 128 127 128 129 130 131 130 129 128 125 123 123
206 209 209 208 208 208 211 210 209 214 208 196 198 198 194 200 206 210 213 216 219 214 210 210 202 199 202 192 189 200 195 190 192 190 189 187 184 188 186 182 185 183 176 175 174 172 169 165 162 158 155 153 149 147 145 143 142 139 138 134 132 134 134 131 129 128 129 129 129 128 128 129 129 130 129 128 130 130 130 131 131 130 129 125 122 121
206 210 210 209 207 207 211 213 215 219 213 205 203 198 199 201 203 213 218 216 219 216 214 215 209 204 205 198 195 201 199 196 195 193 192 190 189 190 186 184 187 182 179 181 176 173 173 168 164 161 160 158 154 151 149 147 145 144 142 138 136 137 138 137 133 131 131 131 131 131 132 132 131 131 130 130 131 131 131 132 131 131 130 127 126 124
205 210 210 210 207 205 208 213 218 219 213 209 204 201 205 202 202 215 215 210 214 214 211 209 209 209 207 204 204 203 202 204 203 199 198 196 196 194 187 188 190 183 182 184 178 176 177 172 168 165 163 162 160 158 154 152 150 149 147 143 140 140 141 142 138 135 132 130 131 133 135 134 132 132 132 132 132 132 133 133 132 132 131 129 129 127
207 207 206 208 209 207 208 211 216 215 210 212 209 206 208 205 205 208 196 194 202 210 205 201 207 212 209 208 209 207 206 209 209 207 204 202 203 200 191 190 190 186 185 185 182 180 180 176 170 167 166 166 167 164 160 159 156 153 151 146 145 143 143 145 142 139 134 131 133 136 137 136 134 135 134 135 135 134 135 135 134 134 134 132 131 129
208 207 204 204 207 209 211 211 212 209 210 216 210 202 202 199 198 192 176 176 188 204 203 198 204 212 210 210 210 207 208 211 211 210 208 205 205 203 195 190 190 188 187 188 186 182 181 179 173 170 170 170 170 169 166 164 159 157 154 150 148 146 145 146 146 144 139 136 137 139 140 139 138 139 139 139 138 137 138 138 137 136 136 134 132 130
207 208 205 202 204 208 209 208 207 207 211 214 202 192 193 194 193 189 184 187 197 202 201 200 204 209 211 212 210 207 208 211 210 210 210 207 205 204 197 191 190 190 189 190 188 184 183 181 176 174 175 174 174 172 171 168 163 160 158 155 152 149 149 149 149 149 145 141 142 143 144 144 143 143 143 142 141 140 140 139 139 138 137 137 136 133
205 208 207 204 204 205 205 205 206 207 209 202 188 183 189 193 192 189 189 197 201 193 193 204 206 208 214 212 207 206 209 211 210 209 210 208 205 204 199 194 192 190 191 192 190 187 186 183 180 179 180 179 176 174 174 172 167 164 162 160 156 153 153 152 151 153 151 147 146 147 147 147 147 146 145 145 143 141 142 142 141 141 140 140 139 136
202 208 208 203 204 204 204 205 204 202 202 191 182 183 190 192 189 187 189 195 195 189 193 205 205 207 216 211 204 206 211 213 211 209 210 209 206 205 201 197 194 192 193 195 192 191 189 185 182 183 183 182 179 178 177 174 171 168 166 163 160 158 156 155 154 156 157 153 149 150 151 151 151 151 148 148 147 144 144 146 144 144 143 142 141 140
201 208 206 202 204 203 202 205 202 196 195 189 186 190 194 190 185 189 195 194 190 196 203 203 200 201 213 212 206 208 212 214 212 209 210 209 206 205 202 200 197 195 196 197 194 193 191 187 186 186 185 184 182 181 178 176 174 171 169 166 164 163 161 159 157 157 159 158 155 154 155 155 155 155 153 153 152 149 149 150 149 148 148 146 144 143
207 204 204 207 209 202 200 204 200 194 194 193 191 194 192 189 190 194 199 195 191 211 216 204 201 205 215 216 211 212 214 212 208 208 209 208 207 206 203 201 199 197 197 197 195 194 192 190 190 188 186 186 185 182 178 178 177 175 174 170 167 167 166 163 161 159 159 161 161 159 158 159 159 159 158 157 157 155 155 156 154 153 152 150 149 147
208 203 204 209 206 198 199 204 201 199 204 203 199 199 191 190 198 198 200 202 201 218 226 207 204 216 227 225 219 219 218 210 207 209 208 207 206 205 204 202 200 199 198 197 195 195 193 192 192 190 190 189 185 181 180 181 180 179 178 175 171 171 170 167 164 163 162 164 166 163 162 164 163 163 163 162 162 162 161 161 159 158 157 156 156 153
205 207 206 205 202 198 199 202 202 206 209 205 202 202 196 195 202 204 204 207 210 218 225 208 202 221 236 233 225 222 219 212 209 209 207 207 205 204 205 204 200 200 199 198 196 195 194 194 193 192 193 191 185 181 182 183 183 182 181 179 176 174 173 171 169 167 166 167 169 168 167 168 168 168 168 167 167 167 166 166 164 163 164 164 163 161
201 210 205 201 201 201 202 199 199 205 205 203 205 200 198 203 206 211 213 210 215 221 223 211 205 225 243 240 233 226 220 214 210 207 205 206 205 203 205 204 200 200 200 198 197 196 195 195 194 194 195 192 187 184 184 185 185 185 184 183 180 178 177 175 173 171 170 170 170 171 171 172 172 173 173 172 172 172 172 171 170 170 171 171 171 169
201 208 205 202 200 202 206 202 200 207 205 206 212 202 201 210 208 210 217 212 216 217 216 219 220 232 240 242 248 234 218 211 210 208 205 204 206 204 204 205 202 201 200 198 199 198 196 195 194 195 195 192 189 188 186 187 187 187 187 186 184 181 180 178 177 176 174 173 173 173 174 175 176 177 177 178 178 178 179 179 177 177 178 180 180 179
204 208 208 205 199 200 206 204 204 211 211 213 216 206 205 216 212 208 214 214 217 217 216 223 228 235 239 249 259 236 210 208 209 208 205 204 205 205 205 206 204 202 200 199 201 200 197 196 195 196 195 192 192 191 190 189 189 189 189 189 188 185 183 182 181 180 178 178 176 175 177 177 179 180 180 182 183 183 185 185 184 184 185 187 188 188
207 213 212 204 199 200 206 206 204 203 205 212 215 209 211 217 211 204 207 214 220 223 224 228 232 237 243 254 257 233 211 217 216 210 206 204 204 204 206 207 205 204 202 200 200 200 198 197 197 196 195 194 194 194 193 192 192 192 191 191 191 189 187 186 185 184 183 181 180 179 179 180 181 182 182 185 186 187 188 190 190 191 192 192 193 195
206 217 222 208 204 209 209 206 206 203 200 201 207 212 213 214 211 203 205 214 216 221 228 232 237 237 236 247 247 229 215 219 221 213 208 205 204 205 207 208 206 205 203 201 200 200 199 199 198 197 196 196 197 197 195 194 194 195 194 193 193 193 191 190 189 189 187 186 185 184 184 184 183 183 184 187 189 189 190 193 195 195 197 198 198 201
198 211 227 211 203 205 203 200 204 207 206 207 212 214 206 207 210 206 209 216 214 222 231 233 242 242 233 233 232 223 216 214 214 211 207 205 205 205 207 208 207 207 205 201 201 202 201 200 200 198 198 199 199 199 196 195 197 198 197 196 196 197 196 194 194 193 191 190 189 188 188 188 186 186 187 189 190 191 193 195 198 199 202 204 205 206
198 201 215 213 198 194 196 199 201 205 209 214 219 215 205 205 208 207 210 213 210 219 228 230 241 244 236 234 229 222 217 213 209 206 205 205 204 205 207 208 207 208 208 203 202 203 202 200 201 200 200 200 201 200 199 199 199 199 200 199 198 199 199 199 198 197 195 195 194 193 192 191 190 190 191 190 191 193 195 196 198 201 204 206 208 209
199 196 204 214 198 191 198 203 201 203 207 210 212 214 212 210 207 207 212 214 211 216 222 226 236 242 243 247 240 228 223 217 210 203 201 201 201 204 207 208 208 208 210 208 204 204 204 202 202 202 202 202 201 201 201 201 201 201 202 202 201 201 202 202 202 201 199 199 198 197 197 196 195 195 195 194 195 196 198 198 199 202 204 205 207 209
197 195 202 215 211 204 207 207 204 206 208 208 208 212 214 213 211 208 213 219 217 214 216 221 229 239 247 249 243 233 226 217 206 199 198 199 199 202 206 210 210 209 211 212 208 206 206 205 205 205 204 203 202 201 201 201 201 202 203 204 204 204 204 204 204 203 203 203 202 201 201 200 199 199 199 199 200 201 201 202 202 203 204 205 207 209
199 195 204 220 225 214 215 214 209 211 215 214 214 214 215 219 219 211 211 218 217 210 212 220 230 237 244 244 239 231 216 204 201 198 198 200 202 203 206 210 212 211 211 213 212 210 210 209 208 207 204 203 203 202 202 202 203 203 204 204 205 205 205 206 206 205 205 205 205 205 205 205 204 204 204 203 204 205 204 206 207 206 208 209 210 211
200 200 211 225 226 215 219 220 208 209 216 219 219 218 218 222 224 220 217 216 215 213 212 220 232 232 236 240 238 230 210 197 201 200 197 201 204 206 207 208 210 210 210 211 213 212 212 212 209 207 205 203 203 204 203 203 204 205 204 205 206 206 206 207 207 207 208 208 207 207 208 209 208 208 208 208 209 209 209 211 211 211 212 213 214 215
197 202 208 215 219 215 222 221 204 205 216 220 220 220 221 224 226 230 227 219 219 219 213 216 228 229 234 241 232 220 205 195 200 200 197 201 201 203 207 207 208 208 206 208 211 210 212 214 210 207 206 205 204 205 206 205 206 206 206 206 207 207 207 208 209 209 211 211 209 209 210 211 212 213 212 212 213 213 214 216 216 215 216 216 217 218
200 203 199 197 206 210 213 210 203 209 221 222 221 224 225 224 225 229 224 218 223 222 210 211 220 224 231 238 225 210 199 194 199 198 197 202 201 199 204 207 210 210 207 207 210 210 211 216 214 209 208 207 206 207 208 208 207 207 207 207 208 208 208 210 211 210 211 213 212 211 212 213 214 216 216 216 217 218 218 219 219 220 221 220 221 221
206 208 205 204 210 215 217 215 212 218 226 224 222 224 224 226 229 229 225 222 222 216 213 215 212 209 218 224 216 209 199 195 198 195 195 200 198 197 201 203 206 210 210 208 209 209 210 214 215 212 210 208 208 209 210 210 208 208 209 209 209 210 210 212 214 213 212 213 213 214 215 216 216 218 219 220 221 222 223 223 223 224 224 224 225 225
210 213 215 217 219 223 225 225 227 228 230 234 229 223 225 235 235 227 228 230 217 207 216 219 207 202 210 212 208 208 203 199 197 193 192 192 189 189 194 196 200 207 210 209 209 210 211 213 212 211 209 207 205 206 209 210 210 211 212 213 213 213 213 214 217 215 212 212 213 214 216 218 219 220 222 223 223 224 225 226 227 228 227 226 228 228
210 214 221 223 227 234 232 231 231 227 226 235 234 221 226 249 242 231 238 238 221 211 214 213 207 206 208 207 205 201 196 194 193 187 186 186 185 185 188 192 196 202 207 210 212 213 214 214 211 208 208 207 204 205 208 210 213 215 215 216 216 215 215 216 214 212 210 211 214 217 218 220 221 221 222 224 224 224 225 226 228 229 228 228 229 230
208 216 225 226 229 235 235 234 232 228 231 237 238 226 213 233 248 244 245 229 213 210 206 202 205 210 209 208 203 192 185 185 183 180 181 183 185 188 193 197 200 201 204 208 211 213 213 213 211 209 208 208 206 207 209 210 214 216 216 217 217 214 215 215 211 211 213 215 218 220 220 221 223 222 223 225 225 224 226 227 228 228 228 228 230 232
207 218 228 226 228 231 233 235 231 227 227 224 228 238 211 202 229 241 229 207 197 196 194 195 201 207 208 205 196 189 187 187 186 183 181 182 186 188 190 196 201 203 205 206 208 211 212 211 211 211 211 211 209 209 211 212 214 215 216 218 218 215 216 215 212 215 219 219 221 223 223 224 225 225 225 227 227 227 227 229 231 231 231 231 232 233
214 226 231 224 226 230 231 232 233 231 225 215 236 261 231 211 217 219 216 209 195 186 189 196 204 209 207 201 196 197 197 196 197 197 192 190 193 194 192 194 199 203 206 205 204 206 207 207 209 210 211 212 211 209 211 213 214 215 217 219 219 217 217 216 216 220 223 222 224 226 225 226 227 227 228 229 229 230 229 230 232 234 235 236 237 237
219 225 229 222 224 228 230 233 235 231 224 224 248 252 231 208 205 202 202 201 196 195 199 205 212 213 206 201 203 205 204 204 207 206 200 194 193 194 191 192 195 197 200 201 199 201 204 205 205 204 205 208 209 209 211 212 214 217 220 222 222 222 222 221 222 226 227 226 228 229 228 228 229 229 230 232 232 232 231 232 233 235 237 238 240 241
223 223 226 225 223 226 232 235 230 218 213 223 237 236 220 207 206 206 206 208 208 207 206 208 214 217 211 207 208 206 204 206 208 205 199 192 190 190 187 186 189 189 188 191 195 199 204 206 206 204 203 203 203 205 208 210 213 217 221 224 225 225 225 225 226 229 229 229 230 231 230 230 230 230 231 233 234 233 233 234 235 236 238 239 241 242
231 231 231 229 223 225 231 231 223 213 211 219 227 229 218 208 205 204 210 221 220 211 205 205 209 215 214 207 203 200 198 199 201 204 204 199 199 201 199 198 199 199 199 198 196 198 201 203 205 207 208 207 205 206 208 211 214 215 219 223 223 222 223 225 228 231 231 231 231 232 232 232 232 231 231 233 235 235 235 236 236 237 238 240 242 243
234 235 232 228 222 222 225 221 215 213 213 216 223 233 231 220 216 214 216 226 229 221 215 210 209 211 208 202 199 198 197 198 201 207 209 209 209 209 210 211 210 209 211 211 206 204 203 205 207 209 211 212 212 213 214 218 220 220 222 224 222 221 223 226 230 233 234 233 233 234 234 233 233 233 233 235 237 237 237 237 238 239 240 241 243 244
235 230 229 229 222 218 218 217 215 215 217 220 226 236 238 232 228 223 221 226 229 229 228 223 216 213 209 205 204 203 203 207 212 215 214 212 213 213 213 214 213 213 214 214 212 210 208 209 211 212 214 216 217 217 219 222 224 225 226 228 227 225 225 227 231 234 235 237 238 238 238 236 235 235 236 237 238 238 238 239 240 242 243 243 245 247
237 225 225 229 224 218 216 217 218 219 221 225 232 239 240 239 238 229 225 229 229 230 235 232 227 224 220 212 210 213 218 220 222 221 217 214 217 219 217 215 213 213 214 213 213 212 211 213 215 216 218 219 220 222 223 225 227 228 229 231 233 232 233 234 236 236 235 237 238 239 239 238 237 237 237 238 240 240 240 241 242 243 244 244 246 248
247 228 220 222 225 225 219 215 217 220 223 229 238 243 242 242 242 230 224 231 232 229 232 232 229 230 231 225 222 228 231 229 227 224 218 216 221 221 217 215 213 212 214 216 215 213 213 214 216 218 221 222 222 224 225 226 228 230 231 233 235 236 237 240 241 239 237 236 235 236 237 236 235 235 236 238 241 241 241 242 242 243 244 245 247 249
249 232 219 218 224 227 220 213 214 218 223 232 241 245 243 243 239 228 224 233 236 229 228 228 225 225 228 227 226 233 236 229 226 225 218 216 221 219 213 211 212 212 214 217 217 215 214 213 214 216 219 221 223 224 226 227 229 231 233 235 235 236 238 240 241 242 241 240 238 238 238 236 233 232 234 237 240 241 242 243 244 244 245 246 248 250
243 229 218 215 221 224 216 208 210 216 222 235 244 247 245 240 232 224 226 233 234 228 225 226 225 225 226 224 225 229 228 221 220 222 216 214 218 217 211 209 211 214 216 218 220 220 219 220 218 216 217 221 223 224 226 227 227 228 230 232 233 234 236 237 238 239 240 239 238 238 237 234 231 232 235 240 242 243 244 245 245 244 244 245 247 248
237 229 222 217 218 221 212 203 207 216 226 240 248 248 244 233 224 225 231 232 231 228 224 223 225 225 222 219 221 222 216 211 211 212 210 209 212 211 208 209 213 217 219 220 221 221 221 223 223 221 221 224 224 225 226 225 223 223 224 225 227 229 231 232 231 232 233 235 237 237 236 236 236 238 241 244 246 246 245 244 243 242 243 244 244 244
229 225 224 221 218 217 213 208 214 221 231 245 246 243 239 227 221 226 231 229 230 230 225 222 226 225 215 210 212 212 208 208 210 209 208 210 210 208 211 215 218 220 221 220 218 218 218 221 223 223 224 226 225 225 225 223 220 219 218 218 221 224 226 226 226 225 226 228 231 234 235 236 236 237 238 241 245 246 245 245 243 242 242 242 242 243
231 227 221 223 225 220 216 216 219 221 227 238 234 229 228 223 219 221 222 223 227 230 226 225 228 227 217 208 206 207 208 210 212 212 211 209 208 209 214 219 220 221 221 218 216 216 217 218 221 223 224 225 224 224 226 226 223 221 220 219 220 221 222 223 223 223 223 224 225 228 229 227 225 226 228 232 239 242 242 242 241 240 240 241 243 244
230 220 212 219 225 219 212 213 215 215 219 225 222 219 219 217 217 218 218 220 225 226 226 227 226 224 218 210 208 211 213 214 215 215 214 212 213 215 217 220 220 218 216 215 214 215 217 218 219 221 223 226 225 224 225 225 222 221 221 221 222 223 222 223 224 223 224 224 224 225 225 224 224 228 232 235 239 241 241 239 237 236 237 240 242 243
206 196 196 210 215 212 210 213 214 213 215 218 216 216 216 215 216 218 217 217 221 224 226 225 221 217 214 211 211 214 217 218 217 216 215 216 217 218 218 216 214 211 209 210 213 216 219 218 218 218 219 222 223 222 221 220 220 221 222 223 225 226 227 227 227 227 228 228 229 231 232 231 232 235 239 240 241 242 241 241 239 236 235 236 237 238
197 193 200 207 209 211 214 217 217 214 215 218 218 219 219 219 219 217 214 213 214 213 216 218 215 213 211 209 210 215 221 222 217 213 215 220 220 218 215 212 211 211 211 212 213 216 218 218 219 219 218 219 221 221 219 218 219 221 223 225 226 228 229 230 230 230 231 233 235 238 239 239 239 241 242 242 241 241 242 243 244 243 241 239 237 237
203 200 207 211 213 214 211 208 207 207 211 218 221 221 221 220 217 211 209 211 211 207 208 212 212 211 212 210 210 214 221 223 218 215 221 228 225 216 210 209 210 210 211 212 214 217 219 220 221 221 221 221 222 222 222 222 223 224 225 226 227 229 230 231 232 233 234 235 237 239 241 242 242 243 243 243 243 243 245 247 248 247 245 245 245 244
193 193 207 206 207 212 209 205 203 205 209 214 217 219 221 221 219 213 206 206 209 208 208 210 211 210 210 210 210 211 212 212 211 211 217 221 217 211 211 215 217 215 215 216 219 221 223 225 225 226 226 226 226 226 227 227 228 229 229 230 231 232 233 233 233 234 236 238 239 239 239 242 243 243 244 245 245 246 248 250 250 248 247 248 251 253
211 211 215 204 205 217 218 211 207 209 213 214 212 215 220 219 219 218 211 205 207 209 210 211 212 212 210 208 209 210 208 206 206 207 210 213 211 210 215 220 222 222 222 224 227 230 231 231 230 229 229 229 230 230 231 231 232 233 233 234 235 235 235 235 235 236 238 240 241 240 240 242 244 244 245 246 247 247 249 252 254 254 252 252 255 257
238 232 218 208 214 215 203 194 195 204 212 215 211 213 219 217 214 215 216 212 210 211 212 212 213 215 217 215 214 216 217 216 217 219 222 220 215 212 215 219 222 224 226 229 233 236 236 234 232 231 231 232 234 234 235 235 235 236 237 238 238 237 237 238 239 241 241 241 242 243 243 245 246 246 247 248 249 250 251 252 255 258 258 257 257 259